[[{"header":{"parameterUnit":"m.s-1","parameterCategory":1,"la1":30.2991,"la2":30.254,"lo1":-89.0895,"lo2":-89.0444,"dy":0.0017,"dx":0.0017,"nx":28,"ny":28,"refTime":"2024-04-02T21:00:00:Z","depth":0,"parameterNumber":2,"parameterNumberName":"U-component_of_WINDS"},"data":[0,0,0,0,0,0,0,0,0,0,0,0,0,0,0,0,0,0,0,0,0,0,0,0,0,0,0,0,0,0,0,0,0,0,0,0,0,0,0,0,0,0,0,0,0,0,0,0,0,0,0,0,0,0,0,0,0,0,6.1785,6.1786,0,6.1884,6.1885,6.1886,6.1869,6.1868,6.1866,6.1864,6.1966,6.197,6.1974,0,0,0,0,0,0,0,0,0,0,0,0,0,6.1583,6.1586,6.1785,6.1786,6.1787,6.1884,6.1885,6.1886,6.187,6.1868,6.1865,6.1863,6.1964,6.1969,6.1974,0,0,0,0,0,0,0,0,0,0,0,0,0,6.1675,6.1588,6.1785,6.179,6.1792,6.1883,6.1885,6.1887,6.187,6.1867,6.1865,6.1862,6.1962,6.1969,6.1975,6.2067,0,0,6.1995,6.1998,0,0,0,0,0,0,0,0,6.167,6.1682,6.1788,6.179,6.1792,6.1862,6.1851,6.1947,6.1871,6.184,6.1864,6.1861,6.1933,6.1942,6.1966,6.2072,6.2076,6.1995,6.1999,6.2002,6.2004,0,0,0,0,0,0,0,6.1663,6.1678,6.1824,6.179,6.1792,6.1789,6.1799,6.1869,6.19,6.1843,6.1842,6.1854,6.1934,6.196,6.1968,6.2077,6.1995,6.2001,6.2005,6.2008,6.2266,6.2269,0,0,0,0,0,0,6.1655,6.1673,6.1821,6.1827,6.1723,6.1794,6.1806,6.1842,6.1899,6.1906,6.1856,6.1853,6.195,6.1961,6.1972,6.2085,6.2002,6.2008,6.2012,6.2263,6.2267,6.227,0,0,0,0,0,0,6.1651,6.1668,6.1817,6.175,6.1768,6.1801,6.1841,6.1845,6.1871,6.1909,6.1915,6.1877,6.1948,6.1963,6.2044,6.2088,6.2011,6.2017,6.226,6.2264,6.2269,6.2311,0,0,0,0,0,0,6.1645,6.1667,6.1701,6.1751,6.1772,6.1887,6.1844,6.1849,6.1883,6.1879,6.193,6.1936,6.1948,6.2035,6.205,6.2096,6.2022,6.2256,6.2262,6.2267,6.2305,6.2316,6.2325,0,0,0,0,0,6.1638,6.1709,6.1703,6.1721,6.1816,6.1889,6.1902,6.1913,6.1886,6.1922,6.1947,6.1935,6.2081,6.2043,6.2061,6.2109,6.2253,6.226,6.2267,6.2301,6.2314,6.2325,0,0,0,0,0,0,6.1663,6.1715,6.171,6.1799,6.184,6.1886,6.1931,6.1926,6.1976,6.197,6.1983,6.1994,6.2077,6.2101,6.2058,6.2202,6.2163,6.2174,6.2183,6.2196,6.2206,6.2198,6.2027,0,0,0,0,0,6.1679,6.1734,6.1777,6.1851,6.1872,6.1899,6.1931,6.1937,6.198,6.1997,6.2027,6.207,6.2126,6.2162,6.2215,6.2309,6.2321,6.2351,6.2361,6.2368,6.2378,6.2432,6.2446,6.2292,6.2292,6.2292,0,0,6.1713,6.1748,6.1782,6.1857,6.189,6.1948,6.1913,6.1975,6.2018,6.2006,6.2085,6.211,6.2158,6.2247,6.2287,6.2269,6.2423,6.2377,6.2383,6.2388,6.244,6.2455,6.2467,6.2297,6.2296,6.2295,0,0,6.1804,6.1835,6.1902,6.1936,6.1986,6.2003,6.2019,6.2068,6.2083,6.2163,6.2156,6.2208,6.2303,6.2339,6.2369,6.2477,6.2469,6.2494,6.2545,6.2597,6.261,6.262,6.2661,6.2675,6.2503,6.2503,6.2503,0,6.1839,6.1925,6.1936,6.2,6.2035,6.2027,6.2096,6.2128,6.2193,6.2217,6.2196,6.2317,6.2349,6.2447,6.2473,6.2498,6.2518,6.2488,6.2607,6.2618,6.2628,6.2667,6.2681,6.2506,6.2505,6.2505,6.2505,0,6.1967,6.2027,6.2075,6.214,6.2179,6.2245,6.2267,6.2306,6.2308,6.2328,6.2411,6.245,6.2512,6.2535,6.2538,6.2635,6.2622,6.2604,6.2565,6.2645,6.2682,6.2697,6.251,6.2509,6.2508,6.2507,0,0,6.2076,6.2147,6.2164,6.2195,6.2251,6.2298,6.2364,6.2425,6.2459,6.2505,6.2562,6.2644,6.2628,6.2663,6.267,6.2715,6.2801,6.2692,6.2693,6.2712,6.2912,6.2927,6.2943,6.2796,6.2798,6.2801,6.2909,0,6.2173,6.229,6.2303,6.2408,6.2465,6.246,6.2518,6.2559,6.258,6.2632,6.2655,6.2714,6.2688,6.2709,6.2754,6.2781,6.2841,6.2773,6.285,6.2852,6.2839,6.2962,6.2977,6.3077,6.2923,6.2925,6.2927,0,6.2302,6.2353,6.2463,6.2514,6.2538,6.259,6.2649,6.2698,6.2745,6.2758,6.2798,6.28,6.2869,6.2828,6.2925,6.2879,6.2911,6.2929,6.2934,6.2942,6.2895,6.2975,6.3109,6.3124,6.2949,6.2947,6.2946,0,6.2373,6.2468,6.2547,6.2573,6.2633,6.267,6.2697,6.2742,6.2779,6.283,6.2855,6.2913,6.2946,6.2991,6.3009,6.2977,6.3107,6.3066,6.312,6.312,6.3148,6.3146,6.329,6.3167,6.3167,6.3166,6.3166,0,6.2481,6.2549,6.258,6.2629,6.2706,6.2721,6.2797,6.2822,6.2863,6.2917,6.2916,6.2968,6.2988,6.3043,6.3057,6.3137,6.3151,6.3164,6.3167,6.3165,6.3163,6.3187,6.3181,6.317,6.3169,6.3169,6.3168,0,6.2572,6.2596,6.2682,6.2733,6.2747,6.2802,6.2846,6.2894,6.2915,6.2984,6.3001,6.3034,6.3099,6.3122,6.32,6.321,6.3303,6.33,6.3287,6.3288,6.3341,6.3337,6.3506,6.353,6.339,6.3391,6.3392,0,6.264,6.2693,6.275,6.2787,6.2815,6.2874,6.2912,6.2929,6.2969,6.3029,6.307,6.3135,6.3187,6.3291,6.3323,6.3384,6.3383,6.3438,6.3392,6.3388,6.3386,6.3383,6.3389,6.3447,6.3448,6.3449,6.345,0,6.2759,6.2769,6.2824,6.2884,6.2929,6.2977,6.3023,6.3053,6.3078,6.3123,6.319,6.3231,6.3312,6.3376,6.3439,6.3467,6.3464,6.3465,6.3481,6.3479,6.3471,6.3478,6.3312,6.3461,6.346,6.3459,6.3458,6.3458,6.2843,6.289,6.2938,6.3,6.3037,6.3081,6.3129,6.3157,6.3213,6.328,6.3287,6.336,6.3408,6.3492,6.3523,6.3581,6.3566,6.3588,6.3594,6.36,6.3605,6.3461,6.3592,6.3592,6.3592,6.3591,6.3591,0,6.2963,6.2994,6.3051,6.3117,6.3166,6.3158,6.3209,6.3251,6.3315,6.336,6.3413,6.3491,6.3554,6.3591,6.3655,6.3694,6.3694,6.3711,6.3708,6.3716,6.3614,6.3594,6.371,6.3709,6.3709,6.3709,6.3709,6.3709,6.3032,6.3113,6.3128,6.3228,6.3259,6.333,6.336,6.3401,6.3438,6.3525,6.3578,6.3601,6.3644,6.3712,6.377,6.378,6.3804,6.3822,6.383,6.3734,6.3722,6.3711,6.3693,6.3827,6.3827,6.3927,6.3928,6.3929]},{"header":{"parameterUnit":"m.s-1","parameterCategory":1,"la1":30.2991,"la2":30.254,"lo1":-89.0895,"lo2":-89.0444,"dy":0.0017,"dx":0.0017,"nx":28,"ny":28,"refTime":"2024-04-02T21:00:00:Z","depth":0,"parameterNumber":3,"parameterNumberName":"V-component_of_WINDS"},"data":[0,0,0,0,0,0,0,0,0,0,0,0,0,0,0,0,0,0,0,0,0,0,0,0,0,0,0,0,0,0,0,0,0,0,0,0,0,0,0,0,0,0,0,0,0,0,0,0,0,0,0,0,0,0,0,0,0,0,-2.3782,-2.3782,0,-2.3787,-2.3788,-2.3788,-2.3828,-2.3829,-2.383,-2.3831,-2.3831,-2.383,-2.3829,0,0,0,0,0,0,0,0,0,0,0,0,0,-2.3803,-2.3803,-2.3782,-2.3782,-2.3782,-2.3787,-2.3788,-2.3788,-2.3828,-2.3829,-2.383,-2.3831,-2.3832,-2.383,-2.3829,0,0,0,0,0,0,0,0,0,0,0,0,0,-2.38,-2.3803,-2.3782,-2.3803,-2.3805,-2.3787,-2.3788,-2.3788,-2.3828,-2.3829,-2.3831,-2.3832,-2.3832,-2.3831,-2.3829,-2.379,0,0,-2.3825,-2.3824,0,0,0,0,0,0,0,0,-2.38,-2.3799,-2.38,-2.3802,-2.3804,-2.3809,-2.3795,-2.3788,-2.3827,-2.3819,-2.3831,-2.3833,-2.3822,-2.3822,-2.3819,-2.379,-2.379,-2.3825,-2.3824,-2.3823,-2.3823,0,0,0,0,0,0,0,-2.38,-2.3799,-2.3784,-2.38,-2.3802,-2.3811,-2.3812,-2.3794,-2.3812,-2.382,-2.3823,-2.3823,-2.3823,-2.382,-2.3819,-2.379,-2.3825,-2.3824,-2.3823,-2.3822,-2.373,-2.3729,0,0,0,0,0,0,-2.3798,-2.3799,-2.3784,-2.3784,-2.3806,-2.381,-2.3811,-2.3806,-2.3812,-2.3815,-2.3822,-2.3825,-2.3822,-2.3821,-2.382,-2.3775,-2.3823,-2.3822,-2.3821,-2.3732,-2.373,-2.3728,0,0,0,0,0,0,-2.3798,-2.3796,-2.3784,-2.3792,-2.3792,-2.3808,-2.3801,-2.3805,-2.3802,-2.3814,-2.3817,-2.3816,-2.3823,-2.3822,-2.3798,-2.3775,-2.3821,-2.382,-2.3734,-2.3731,-2.3729,-2.3684,0,0,0,0,0,0,-2.3799,-2.3796,-2.3782,-2.3792,-2.3791,-2.3763,-2.38,-2.3804,-2.38,-2.3804,-2.3809,-2.3811,-2.3824,-2.38,-2.3796,-2.3774,-2.3819,-2.3736,-2.3733,-2.373,-2.3687,-2.368,-2.3674,0,0,0,0,0,-2.3799,-2.3768,-2.3781,-2.3779,-2.3774,-2.3761,-2.3761,-2.3778,-2.3798,-2.3784,-2.3792,-2.3811,-2.3779,-2.3797,-2.3793,-2.377,-2.3737,-2.3734,-2.373,-2.369,-2.3682,-2.3674,0,0,0,0,0,0,-2.3753,-2.3769,-2.3784,-2.3756,-2.3757,-2.3768,-2.375,-2.3768,-2.3762,-2.3766,-2.3787,-2.3788,-2.3761,-2.3763,-2.3783,-2.3734,-2.3761,-2.3757,-2.3732,-2.3724,-2.3718,-2.3717,-2.3818,0,0,0,0,0,-2.374,-2.3729,-2.3744,-2.3717,-2.3717,-2.3734,-2.3729,-2.3743,-2.3744,-2.3744,-2.375,-2.375,-2.374,-2.3732,-2.3724,-2.3689,-2.369,-2.3671,-2.3665,-2.3659,-2.3654,-2.3636,-2.3628,-2.3716,-2.3716,-2.3717,0,0,-2.3711,-2.3719,-2.3711,-2.3708,-2.371,-2.3698,-2.3734,-2.3719,-2.3709,-2.3741,-2.372,-2.3724,-2.3725,-2.3696,-2.3683,-2.3697,-2.3631,-2.3655,-2.365,-2.3648,-2.3632,-2.3623,-2.3616,-2.3714,-2.3714,-2.3715,0,0,-2.3653,-2.3659,-2.3637,-2.364,-2.3644,-2.3656,-2.3651,-2.366,-2.3665,-2.3644,-2.3668,-2.3657,-2.3639,-2.3639,-2.3636,-2.3581,-2.3598,-2.3577,-2.3541,-2.3524,-2.3517,-2.351,-2.349,-2.3482,-2.3573,-2.3573,-2.3573,0,-2.3617,-2.36,-2.3623,-2.3607,-2.3605,-2.3636,-2.3614,-2.3615,-2.3615,-2.3612,-2.3629,-2.3609,-2.3611,-2.3582,-2.3569,-2.3566,-2.356,-2.3576,-2.3516,-2.351,-2.3505,-2.3485,-2.3478,-2.357,-2.357,-2.3571,-2.3571,0,-2.3555,-2.3544,-2.3526,-2.3528,-2.3524,-2.3504,-2.3523,-2.3516,-2.3531,-2.3541,-2.3519,-2.3524,-2.3517,-2.3512,-2.3525,-2.3485,-2.3493,-2.3513,-2.3541,-2.3493,-2.3475,-2.3468,-2.3566,-2.3567,-2.3568,-2.3569,0,0,-2.3465,-2.3483,-2.3475,-2.3477,-2.3485,-2.3476,-2.3459,-2.3454,-2.3447,-2.3447,-2.3432,-2.3418,-2.3437,-2.3434,-2.3448,-2.3432,-2.3387,-2.3454,-2.3454,-2.344,-2.3343,-2.3327,-2.3318,-2.34,-2.3399,-2.3398,-2.3343,0,-2.3409,-2.3381,-2.3402,-2.337,-2.3359,-2.339,-2.3375,-2.3377,-2.3386,-2.3378,-2.3388,-2.3377,-2.3402,-2.3401,-2.3387,-2.3396,-2.3368,-2.34,-2.3385,-2.3384,-2.3382,-2.3309,-2.3292,-2.324,-2.3336,-2.3335,-2.3334,0,-2.3339,-2.3338,-2.3306,-2.3318,-2.3314,-2.33,-2.3298,-2.329,-2.3294,-2.3301,-2.33,-2.3318,-2.3301,-2.333,-2.3306,-2.3328,-2.3323,-2.3327,-2.3325,-2.3323,-2.3355,-2.3303,-2.3223,-2.3215,-2.3323,-2.3324,-2.3325,0,-2.3276,-2.3267,-2.3246,-2.3247,-2.326,-2.325,-2.3254,-2.326,-2.3257,-2.3255,-2.3252,-2.3248,-2.3244,-2.324,-2.3257,-2.3277,-2.323,-2.3261,-2.3235,-2.3234,-2.3222,-2.3222,-2.3138,-2.3221,-2.3221,-2.3222,-2.3222,0,-2.321,-2.3188,-2.3218,-2.3205,-2.3182,-2.3206,-2.3182,-2.319,-2.3196,-2.3184,-2.321,-2.3199,-2.3222,-2.3213,-2.3225,-2.3203,-2.3202,-2.3207,-2.321,-2.3203,-2.3203,-2.3199,-2.3203,-2.322,-2.322,-2.322,-2.3221,0,-2.3134,-2.3154,-2.3133,-2.3149,-2.3152,-2.3134,-2.3147,-2.3135,-2.3147,-2.3132,-2.313,-2.3148,-2.3138,-2.3155,-2.3147,-2.3156,-2.3125,-2.3135,-2.3124,-2.3126,-2.3099,-2.31,-2.3008,-2.2997,-2.3088,-2.3088,-2.3087,0,-2.309,-2.3075,-2.3089,-2.3084,-2.3088,-2.308,-2.3077,-2.3101,-2.3096,-2.3101,-2.3088,-2.3081,-2.3077,-2.306,-2.3072,-2.3066,-2.3075,-2.3043,-2.3074,-2.3068,-2.3073,-2.3073,-2.3071,-2.3036,-2.3035,-2.3034,-2.3033,0,-2.3009,-2.302,-2.3016,-2.3015,-2.3011,-2.3011,-2.3013,-2.3007,-2.3032,-2.3026,-2.3017,-2.3014,-2.3008,-2.3,-2.2997,-2.3001,-2.302,-2.3024,-2.3017,-2.3009,-2.3003,-2.3005,-2.3105,-2.3025,-2.3026,-2.3027,-2.3027,-2.3027,-2.2947,-2.2935,-2.2944,-2.2938,-2.2943,-2.2944,-2.2934,-2.2946,-2.294,-2.2937,-2.2952,-2.294,-2.2946,-2.2944,-2.2946,-2.2937,-2.2951,-2.2941,-2.2939,-2.2936,-2.2931,-2.3007,-2.2937,-2.2937,-2.2937,-2.2937,-2.2938,0,-2.2867,-2.2875,-2.287,-2.2872,-2.2868,-2.289,-2.2893,-2.2887,-2.2877,-2.2882,-2.2878,-2.2868,-2.2862,-2.2874,-2.2869,-2.2859,-2.2868,-2.2857,-2.2857,-2.2857,-2.2919,-2.2925,-2.285,-2.285,-2.285,-2.285,-2.285,-2.285,-2.2825,-2.2806,-2.2818,-2.2801,-2.2809,-2.2799,-2.2799,-2.28,-2.2804,-2.2793,-2.2788,-2.2797,-2.2804,-2.2801,-2.2795,-2.2799,-2.2795,-2.2781,-2.2787,-2.2844,-2.2853,-2.2861,-2.2866,-2.278,-2.278,-2.2726,-2.2725,-2.2725]}]]